Regional Weather Roundup
Issued by NWS Grand Forks, ND

Home | Current Version | Previous Version | Graphics & Text | Print | Product List | Glossary On
Versions: 1 2 3 4 5 6 7 8 9 10 11 12 13 14 15 16 17 18 19 20 21 22 23 24 25 26 27 28 29 30 31 32 33 34 35 36 37 38 39 40 41 42 43 44 45 46 47 48 49 50
000
ASUS43 KFGF 210231
RWRFGF
PRAIRIE TO PINES  WEATHER ROUNDUP
NATIONAL WEATHER SERVICE EASTERN NORTH DAKOTA/GRAND FORKS ND
800 PM CST SAT DEC 20 2014

 **SATELLITE DATA USED TO AUGMENT SKY COVER AT AUTOMATED STATIONS**
 *****  WEATHER ACROSS EASTERN NORTH DAKOTA  *****

CITY           SKY/WX    TMP DP  RH WIND       PRES   REMARKS
GRAND FORKS    LGT SNOW  29  28  96 S13       29.89F FOG     WCI  19
GRAND FRKS AFB FLURRIES  28  28 100 S14       29.87F WCI  17
GRAND FRKS NWS   N/A     30 N/A N/A S7          N/A  WCI  23
DEVILS LAKE    CLOUDY    27  21  80 S9        29.79F WCI  17
FARGO          CLOUDY    33  29  85 S14G28    29.92F FOG     WCI  23
WAHPETON ARPT  CLOUDY    32  28  86 S17       29.95S WCI  21
$$

 ***** WEATHER ACROSS CENTRAL AND WESTERN NORTH DAKOTA  *****

CITY           SKY/WX    TMP DP  RH WIND       PRES   REMARKS
BISMARCK       PTCLDY    22  21  96 SE5       29.82S WCI  16
MINOT          FRZ RAIN  31  29  92 SW9       29.74F FOG     WCI  23
JAMESTOWN      CLOUDY    28  25  88 S14       29.83F FOG     WCI  17
MINOT AFB      CLOUDY    25  25 100 S5        29.74F WCI  19
GARRISON         N/A     28  26  92 CALM      29.76F
WILLISTON      CLEAR     31  24  75 SW7       29.75S WCI  24
DICKINSON      MOCLDY    31  24  75 SW7       29.77F WCI  24
HETTINGER      MOCLDY    28  23  81 CALM      29.82F
$$

 *****  OTHER AIRPORT OBSERVATIONS IN OUR AREA  *****

CITY           SKY/WX    TMP DP  RH WIND       PRES   REMARKS
WALHALLA         N/A     27  27 100 S10       29.85F FOG     WCI  17
GRAFTON AIRPOR NOT AVBL
VALLEY CITY AR CLOUDY    28  28 100 S14       29.86S FOG     WCI  17
CANDO          CLOUDY    27  27 100 S8        29.80F FOG     WCI  18
CAVALIER APRT  CLOUDY    28  28 100 S15       29.86F FOG     WCI  17
GWINNER        CLOUDY    32  32 100 MISG      29.90F
ROLLA          FOG       23  23 100 MISG      29.78S VSB 1/4
 ***** THE ABOVE OBSERVATIONS ARE NON NWS ARE NOT QUALITY
       CONTROLLED AND MAY MIS-REPORT RAIN FOR SNOW...
$$

  *****  WEATHER ACROSS NORTHERN MINNESOTA  *****

CITY           SKY/WX    TMP DP  RH WIND       PRES   REMARKS
FLAG ISLAND    CLOUDY    28  27  93 S14       29.92F WCI  17
WARROAD        CLOUDY    28  27  93 S10       29.93S FOG     WCI  19
ROSEAU         CLOUDY    30  27  86 S12       29.92S FOG     WCI  21
HALLOCK        CLOUDY    30  28  93 CALM      29.89S FOG
THF RVR FALLS  CLOUDY    30  28  93 S12       29.92S WCI  21
BAUDETTE       CLOUDY    29  27  92 S9        29.94F WCI  20
WASKISH        CLOUDY    30  28  93 CALM      29.95F FOG
CROOKSTON      CLOUDY    30  28  93 S15       29.92F FOG     WCI  19
STEPHEN NDAWN    N/A     28  28 100 S14         N/A  WCI  17
GREENBUSH NDAW   N/A     28  28 100 S1          N/A
$$
  *****  WEATHER ACROSS CENTRAL AND WEST MINNESOTA  *****

CITY           SKY/WX    TMP DP  RH WIND       PRES   REMARKS
FOSSTON        CLOUDY    28  27  93 SE13      29.92F FOG     WCI  18
BEMIDJI        CLOUDY    28  27  96 S13G18    29.95S FOG     WCI  18
PARK RAPIDS    CLOUDY    30  28  92 S14       29.97R FOG     WCI  19
ELBOW LAKE     CLOUDY    30  28  95 S24       29.96S FOG     WCI  16
WADENA         CLOUDY    28  27  93 S13G20    29.97F FOG     WCI  18
DETROIT LAKES  CLOUDY    32  30  93 S17G26    29.93F FOG     WCI  21
MOORHEAD       CLOUDY    32  32 100 S17G23    29.95R FOG     WCI  21
FERGUS FALLS   CLOUDY    30  28  93 S22       29.99S FOG     WCI  17
MORRIS MN      CLOUDY    30  28  93 S20       29.97F FOG     WCI  18
STAPLES        CLOUDY    28  27  93 S14G20    30.00S WCI  17
$$
  *****  WEATHER ELSEWHERE ACROSS MINNESOTA  *****

CITY           SKY/WX    TMP DP  RH WIND       PRES   REMARKS
DULUTH         CLOUDY    30  26  85 S9        30.04F WCI  22
INTRNTL FALLS  CLOUDY    30  27  88 VRB5      29.97F
ELY            CLOUDY    28  27  93 S10       30.02F WCI  19
CLOQUET        CLOUDY    28  27  93 S10       30.05S FOG     WCI  19
WHEATON        CLOUDY    28  27  93 S17       29.97F FOG     WCI  16
BRAINERD       CLOUDY    28  25  88 S16       30.03F WCI  16
HIBBING        CLOUDY    30  26  85 S8G17     30.01F WCI  22
ALEXANDRIA     CLOUDY    29  27  92 S16       29.99F WCI  17
SAINT CLOUD    CLOUDY    31  25  78 S14       30.06F WCI  21
MINNEAPOLIS    CLOUDY    32  27  81 S10       30.11S WCI  24
$$

  *****  WEATHER ACROSS SOUTH DAKOTA  *****

CITY           SKY/WX    TMP DP  RH WIND       PRES   REMARKS
SIOUX FALLS    CLOUDY    30  29  96 S15       29.99F FOG     WCI  19
BROOKINGS      NOT AVBL
WATERTOWN      CLOUDY    29  28  96 S14       29.91F FOG     WCI  18
HURON          CLOUDY    30  29  96 S12       29.94F FOG     WCI  20
SISSETON         N/A     31  30  96 S15       29.92  WCI  20
ABERDEEN       CLOUDY    30  28  92 S15       29.92F FOG     WCI  19
MITCHELL       CLOUDY    32  31  96 S12       29.97F FOG     WCI  23
PIERRE         PTCLDY    21  19  92 SE6       29.87F FOG     WCI  13
MOBRIDGE       MOCLDY    28  25  88 SE12      29.82F WCI  18
RAPID CITY     PTCLDY    29  24  82 CALM      29.87S
$$

  *****  SOME WEATHER IN NEARBY STATES *****

CITY           SKY/WX    TMP DP  RH WIND       PRES   REMARKS
GLASGOW MT     CLEAR     32  22  66 CALM      29.73F
GREAT FALLS MT PTCLDY    34  25  69 S12       29.66F
CHEYENNE WY    CLOUDY    35  20  54 W10       29.93F
SCOTTSBLUFF NE MOCLDY    30  22  72 NW3       29.92S
OMAHA NE       CLOUDY    35  32  88 S13       30.07F FOG
DES MOINES IA  CLOUDY    36  33  89 SE7       30.12F FOG
DAVENPORT IA   CLOUDY    33  28  81 SE10      30.21S HAZE    WCI  25
CHICAGO IL     CLOUDY    32  26  78 S6        30.25S
EAU CLAIRE WI  CLOUDY    31  26  82 S9        30.14F WCI  23
LA CROSSE WI   CLOUDY    33  28  81 SE8       30.18F
$$

  *****  SOME NATIONAL WEATHER *****

CITY           SKY/WX    TMP DP  RH WIND       PRES   REMARKS
LA GUARDIA NY  CLOUDY    33  22  63 N7        30.29R
RALEIGH NC     CLOUDY    38  34  85 CALM      30.28S FOG
ATLANTA GA     CLOUDY    50  45  83 E7        30.19S HAZE
NEW ORLEANS LA CLOUDY    52  47  83 NE12      30.15R
OKLAHOMA CITY  CLOUDY    42  37  82 S7        30.15R
ALBUQUERQUE NM MOCLDY    40  26  57 W3        30.11R
SALT LAKE CITY CLOUDY    41  34  76 SE9       30.05F
LOS ANGELES CA CLOUDY    60  55  83 E5        30.12S
BOISE ID       LGT RAIN  41  39  93 SE7       29.95R
SEATTLE WA     LGT RAIN  53  50  89 S16       29.47S FOG
$$

*** WEATHER ACROSS MANITOBA...SASKATCHEWAN AND ONTARIO ***
                ***ONTARIO***

CITY           SKY/WX    TMP DP  RH WIND       PRES   REMARKS
GERALDTON      CLOUDY    25  23  93 SE5       30.13F WCI  19
THUNDER BAY    CLOUDY    32  30  93 SE5       30.12
SIOUX LOOKOUT  FRZ DRZL  28  27  93 S8        29.98F WCI  20
TORONTO        MOCLDY    28  23  80 CALM      30.28S
BIG TROUT LK   CLOUDY    23  23 100 SE7       30.02F WCI  15
PICKLE LAKE    FLURRIES  25  21  86 SE8       30.00F WCI  16
DRYDEN         CLOUDY    28  27  93 S9        29.95F FOG     WCI  20
KENORA         FRZ DRZL  28  27  93 S9        29.92  FOG     WCI  20
$$
                *** MANITOBA***

CITY           SKY/WX    TMP DP  RH WIND       PRES   REMARKS
BRANDON        LGT SNOW  23  23 100 E5        29.79F VSB 1   WCI  17
DAUPHIN        CLOUDY    25  21  86 SW6       29.79S WCI  18
ISLAND LAKE    FLURRIES  23  21  93 SE7       29.91F WCI  15
PILOT MOUND      N/A     25  23  93 CALM        N/A
THE PAS        FLURRIES  19  18  93 SE10      29.78F WCI   8
THOMPSON       LGT SNOW  18  16  93 S7        29.84F WCI   8
WINNIPEG       FRZ DRZL  27  25  93 S14       29.88F VSB 1   WCI  15
LYNN LAKE      CLOUDY    14  14 100 S9        29.74F WCI   2
CHURCHILL      PTCLDY    14  12  92 S12       29.85  WCI   0
GILLAM         FLURRIES  19  16  86 S5        29.91F WCI  13
$$
                ***SASKATCHEWAN***

CITY           SKY/WX    TMP DP  RH WIND       PRES   REMARKS
ESTEVAN        MOCLDY    30  28  93 SW8       29.71S WCI  23
KINDERSLEY     PTCLDY    19  18  93 S10       29.59  WCI   8
LLOYDMINSTER   FOG       19  18  93 E7        29.57F VSB 1/4 WCI  10
PRINCE ALBERT  FLURRIES  19  19 100 NE2       29.67F
REGINA         FOG       25  25 100 CALM      29.68F VSB 1/8
YORKTON        CLOUDY    25  25 100 S6        29.69S WCI  18
N. BATTLEFORD  FOG       21  19  93 VRB2      29.65F VSB 1
LA RONGE       CLOUDY    18  16  93 SE7       29.70  WCI   8
SASKATOON      CLOUDY    21  19  93 SW2       29.67
SWIFT CURRENT  CLEAR     25  23  93 S9        29.63F WCI  15
$$
NOTE: THESE ARE AUTOMATED STATIONS WITH LIMITED QUALITY CONTROL
      "FAIR" INDICATES FEW OR NO CLOUDS BELOW 12,000 FEET WITH NO
      SIGNIFICANT WEATHER AND/OR OBSTRUCTIONS TO VISIBILITY.
      SKY/WX - SKY CONDITION AND SIGNIFICANT WEATHER.
      TMP - AIR TEMPERATURE.    DP   - DEWPOINT TEMPERATURE.
      RH  - RELATIVE HUMIDITY.  PRES - PRESSURE.
      HX  - HEAT INDEX.         WCI  - WIND CHILL INDEX.
$



USA.gov is the U.S. government's official web portal to all federal, state and local government web resources and services.